^^
Station Historical Data
Daily Summary for March 22, 2017 Units:  Metric    English   Both
« Previous Day
Next Day »
Daily Weekly Monthly Yearly Custom
  High: Low: Average:
Temperature: 34.7 °C 20.5 °C 26.5 °C
Dew Point: 17.5 °C 8.2 °C 10.3 °C
Humidity: 83% 23% 37%
Wind Speed: 30.6km/h 0km/h 4.7km/h
Wind Gust: 45.1km/h - -
Wind- - SE
Pressure: 1014.1 hPa 1007.7 hPa -
Precipitation: 0.76 mm    
Historical Graphs
 
 
Tabular Data for March 22, 2017
Time Temperature Dew Point Pressure Wind Wind Speed Wind Gust Humidity Rainfall Rate (Hourly) solar Conditions
00:00 27.3 °C 8.2 °C 1011.4 hPa Calm     30% 0 mm 0.0 W/m2
00:05 27.3 °C 8.2 °C 1011.4 hPa Calm     30% 0 mm 0.0 W/m2
00:15 27.2 °C 8.6 °C 1011.4 hPa Calm     31% 0 mm 0.0 W/m2
00:20 27.2 °C 8.6 °C 1011.4 hPa Calm     31% 0 mm 0.0 W/m2
00:25 27.2 °C 8.6 °C 1011.4 hPa Calm     31% 0 mm 0.0 W/m2
00:31 27.2 °C 8.6 °C 1011.4 hPa Calm     31% 0 mm 0.0 W/m2
00:36 27.2 °C 8.6 °C 1011.1 hPa Calm     31% 0 mm 0.0 W/m2
00:46 27.1 °C 8.5 °C 1011.1 hPa Calm     31% 0 mm 0.0 W/m2
00:51 27.1 °C 9 °C 1011.1 hPa Calm     32% 0 mm 0.0 W/m2
00:56 27.1 °C 9 °C 1011.1 hPa Calm     32% 0 mm 0.0 W/m2
01:02 27.1 °C 9 °C 1011.1 hPa Calm     32% 0 mm 0.0 W/m2
01:07 27 °C 8.9 °C 1011.1 hPa Calm     32% 0 mm 0.0 W/m2
01:13 26.9 °C 8.8 °C 1011.1 hPa Calm     32% 0 mm 0.0 W/m2
01:18 26.8 °C 8.7 °C 1011.1 hPa Calm     32% 0 mm 0.0 W/m2
01:28 26.6 °C 9 °C 1011.1 hPa Calm     33% 0 mm 0.0 W/m2
01:38 26.4 °C 8.8 °C 1011.1 hPa Calm     33% 0 mm 0.0 W/m2
01:43 26.3 °C 8.7 °C 1011.1 hPa Calm     33% 0 mm 0.0 W/m2
01:48 26.2 °C 8.7 °C 1011.1 hPa Calm     33% 0 mm 0.0 W/m2
01:53 26 °C 8.5 °C 1011.1 hPa Calm     33% 0 mm 0.0 W/m2
01:58 25.7 °C 8.7 °C 1011.1 hPa Calm     34% 0 mm 0.0 W/m2
02:04 25.5 °C 8.5 °C 1011.1 hPa Calm     34% 0 mm 0.0 W/m2
02:09 25.3 °C 8.7 °C 1011.4 hPa Calm     35% 0 mm 0.0 W/m2
02:15 25.2 °C 8.6 °C 1011.4 hPa Calm     35% 0 mm 0.0 W/m2
02:20 25.3 °C 8.7 °C 1011.4 hPa Calm     35% 0 mm 0.0 W/m2
02:25 25.4 °C 8.8 °C 1011.1 hPa Calm     35% 0 mm 0.0 W/m2
02:30 25.5 °C 8.9 °C 1011.4 hPa Calm     35% 0 mm 0.0 W/m2
02:36 25.3 °C 9.2 °C 1011.4 hPa Calm     36% 0 mm 0.0 W/m2
02:41 25.2 °C 8.6 °C 1011.1 hPa Calm     35% 0 mm 0.0 W/m2
02:47 24.9 °C 8.8 °C 1011.1 hPa Calm     36% 0 mm 0.0 W/m2
02:53 24.7 °C 9 °C 1011.1 hPa Calm     37% 0 mm 0.0 W/m2
02:58 24.4 °C 8.8 °C 1011.1 hPa Calm     37% 0 mm 0.0 W/m2
03:03 24.3 °C 9.1 °C 1011.1 hPa Calm     38% 0 mm 0.0 W/m2
03:08 24.2 °C 9 °C 1011.1 hPa Calm     38% 0 mm 0.0 W/m2
03:13 24.2 °C 9 °C 1011.1 hPa Calm     38% 0 mm 0.0 W/m2
03:18 24.2 °C 9 °C 1011.1 hPa Calm     38% 0 mm 0.0 W/m2
03:23 24.1 °C 8.9 °C 1011.1 hPa Calm     38% 0 mm 0.0 W/m2
03:29 24.2 °C 8.6 °C 1011.1 hPa Calm     37% 0 mm 0.0 W/m2
03:34 24.1 °C 8.9 °C 1011.1 hPa Calm     38% 0 mm 0.0 W/m2
03:39 23.9 °C 8.7 °C 1011.1 hPa Calm     38% 0 mm 0.0 W/m2
03:45 23.7 °C 8.5 °C 1011.1 hPa Calm     38% 0 mm 0.0 W/m2
03:50 23.5 °C 8.7 °C 1011.1 hPa Calm     39% 0 mm 0.0 W/m2
03:55 23.4 °C 8.7 °C 1011.1 hPa Calm     39% 0 mm 0.0 W/m2
04:05 23.6 °C 9.2 °C 1011.1 hPa Calm     40% 0 mm 0.0 W/m2
04:11 23.8 °C 9 °C 1011.1 hPa Calm     39% 0 mm 0.0 W/m2
04:16 23.9 °C 9.1 °C 1011.1 hPa Calm     39% 0 mm 0.0 W/m2
04:21 23.9 °C 8.7 °C 1011.1 hPa Calm     38% 0 mm 0.0 W/m2
04:26 23.9 °C 8.7 °C 1011.1 hPa Calm     38% 0 mm 0.0 W/m2
04:31 23.9 °C 9.1 °C 1011.1 hPa Calm     39% 0 mm 0.0 W/m2
04:37 23.8 °C 9 °C 1011.1 hPa Calm     39% 0 mm 0.0 W/m2
04:42 23.7 °C 8.9 °C 1011.1 hPa Calm     39% 0 mm 0.0 W/m2
04:47 23.6 °C 8.8 °C 1011.1 hPa Calm     39% 0 mm 0.0 W/m2
04:52 23.4 °C 9 °C 1011.4 hPa Calm     40% 0 mm 0.0 W/m2
04:57 23.3 °C 9.3 °C 1011.4 hPa Calm     41% 0 mm 0.0 W/m2
05:02 23 °C 8.7 °C 1011.4 hPa Calm     40% 0 mm 0.0 W/m2
05:07 22.8 °C 8.9 °C 1011.7 hPa Calm     41% 0 mm 0.0 W/m2
05:12 22.6 °C 9 °C 1011.4 hPa Calm     42% 0 mm 0.0 W/m2
05:18 22.6 °C 9.4 °C 1011.7 hPa Calm     43% 0 mm 0.0 W/m2
05:23 22.6 °C 9.4 °C 1011.7 hPa Calm     43% 0 mm 0.0 W/m2
05:29 22.5 °C 9.3 °C 1011.7 hPa Calm     43% 0 mm 0.0 W/m2
05:32 22.5 °C 9.6 °C 1011.7 hPa Calm     44% 0 mm 0.0 W/m2
05:39 22.7 °C 9.5 °C 1011.7 hPa Calm     43% 0 mm 0.0 W/m2
05:46 22.7 °C 9.5 °C 1011.7 hPa Calm     43% 0 mm 0.0 W/m2
05:52 22.8 °C 9.6 °C 1011.7 hPa Calm     43% 0 mm 0.0 W/m2
06:02 22.8 °C 9.6 °C 1012.1 hPa Calm     43% 0 mm 0.0 W/m2
06:08 22.6 °C 9.4 °C 1012.1 hPa Calm     43% 0 mm 0.0 W/m2
06:16 22.6 °C 10.1 °C 1012.1 hPa Calm     45% 0 mm 0.0 W/m2
06:21 22.9 °C 10.3 °C 1012.1 hPa Calm     45% 0 mm 0.0 W/m2
07:02 22.2 °C 10.4 °C 1012.1 hPa Calm     47% 0 mm 7.0 W/m2
07:07 22.3 °C 10.4 °C 1012.1 hPa Calm     47% 0 mm 9.0 W/m2
07:12 22.5 °C 10.6 °C 1012.4 hPa Calm     47% 0 mm 11.0 W/m2
07:17 22.7 °C 10.8 °C 1012.4 hPa Calm     47% 0 mm 14.0 W/m2
07:22 22.9 °C 11 °C 1012.4 hPa Calm     47% 0 mm 16.0 W/m2
07:28 23 °C 10.4 °C 1012.1 hPa Calm     45% 0 mm 19.0 W/m2
07:38 22.6 °C 10.4 °C 1012.1 hPa Calm     46% 0 mm 37.0 W/m2
07:43 22.4 °C 10.2 °C 1012.4 hPa Calm     46% 0 mm 47.0 W/m2
07:48 22.5 °C 10.6 °C 1012.4 hPa Calm     47% 0 mm 130.0 W/m2
07:53 22.8 °C 10.9 °C 1012.4 hPa Calm     47% 0 mm 98.0 W/m2
07:58 23.3 °C 11 °C 1012.4 hPa Calm     46% 0 mm 178.0 W/m2
08:04 23.8 °C 11.2 °C 1012.4 hPa Calm     45% 0 mm 77.0 W/m2
08:14 24.7 °C 11.3 °C 1012.4 hPa Calm     43% 0 mm 257.0 W/m2
08:17 25 °C 11.6 °C 1012.4 hPa Calm     43% 0 mm 127.0 W/m2
08:25 25.8 °C 12.3 °C 1012.4 hPa Calm     43% 0 mm 318.0 W/m2
08:44 28 °C 12.4 °C 1012.8 hPa Calm   9.7 km/h 38% 0 mm 385.0 W/m2
08:50 28.3 °C 12.2 °C 1012.8 hPa North 19.5 km/h 19.5 km/h 37% 0 mm 410.0 W/m2
09:00 28.4 °C 12.3 °C 1012.8 hPa North 9.7 km/h 16.1 km/h 37% 0 mm 404.0 W/m2
09:20 29.1 °C 12.5 °C 1012.8 hPa Calm   12.9 km/h 36% 0 mm 452.0 W/m2
09:25 29.3 °C 12.7 °C 1012.8 hPa North 11.1 km/h 19.3 km/h 36% 0 mm 469.0 W/m2
09:28 29.3 °C 12.7 °C 1012.8 hPa Calm   22.5 km/h 36% 0 mm 482.0 W/m2
09:35 29.4 °C 12.8 °C 1012.8 hPa North 17.7 km/h 17.7 km/h 36% 0 mm 497.0 W/m2
10:01 30 °C 12.9 °C 1012.8 hPa North 20.9 km/h 29 km/h 35% 0 mm 570.0 W/m2
10:14 30.2 °C 13 °C 1012.8 hPa NNW 3.2 km/h 11.3 km/h 35% 0 mm 612.0 W/m2
10:30 30.6 °C 12.9 °C 1012.8 hPa NNW 6.4 km/h 20.9 km/h 34% 0 mm 635.0 W/m2
10:39 31 °C 12.4 °C 1012.4 hPa NNW 7.9 km/h 24.1 km/h 32% 0 mm 675.0 W/m2
10:54 31.4 °C 12.7 °C 1012.4 hPa NNW 25.9 km/h 35.4 km/h 32% 0 mm 708.0 W/m2
11:13 31.4 °C 13.2 °C 1012.1 hPa NW 20.9 km/h 29 km/h 33% 0 mm 737.0 W/m2
11:22 31.4 °C 13.2 °C 1012.1 hPa NW 25.9 km/h 35.4 km/h 33% 0 mm 754.0 W/m2
12:23 32.9 °C 13 °C 1011.1 hPa NNW 22.7 km/h 27.4 km/h 30% 0 mm 849.0 W/m2
12:37 32.7 °C 13.4 °C 1010.7 hPa NNW 11.1 km/h 19.3 km/h 31% 0 mm 860.0 W/m2
12:50 32.9 °C 13.5 °C 1010.7 hPa North 14.3 km/h 22.5 km/h 31% 0 mm 877.0 W/m2
13:06 33 °C 13.1 °C 1010.4 hPa North 11.1 km/h 27.4 km/h 30% 0 mm 163.0 W/m2
13:19 33.6 °C 13.1 °C 1010 hPa North 17.7 km/h 45.1 km/h 29% 0 mm 918.0 W/m2
14:30 34.3 °C 12 °C 1009 hPa North 17.7 km/h 32.2 km/h 26% 0 mm 793.0 W/m2
14:35 34.5 °C 11 °C 1009 hPa North 17.7 km/h 25.7 km/h 24% 0 mm 770.0 W/m2
14:43 34.3 °C 10.8 °C 1009 hPa NNE 22.7 km/h 22.7 km/h 24% 0 mm 765.0 W/m2
14:55 34.7 °C 10.5 °C 1008.7 hPa North 7.9 km/h 12.9 km/h 23% 0 mm 751.0 W/m2
15:46 33.1 °C 11.6 °C 1008 hPa NE 11.1 km/h 20.9 km/h 27% 0 mm 169.0 W/m2
16:37 32.3 °C 12 °C 1007.7 hPa NNE 11.1 km/h 17.7 km/h 29% 0 mm 149.0 W/m2
16:44 32.2 °C 11.9 °C 1007.7 hPa North 17.7 km/h 22.5 km/h 29% 0 mm 165.0 W/m2
16:49 32.2 °C 11.9 °C 1007.7 hPa North 13 km/h 20.9 km/h 29% 0 mm 172.0 W/m2
16:55 32.2 °C 11.4 °C 1008 hPa NNE 13 km/h 19.3 km/h 28% 0 mm 160.0 W/m2
17:07 32.3 °C 11.5 °C 1008 hPa NNE 14.3 km/h 19.3 km/h 28% 0 mm 141.0 W/m2
17:52 31.7 °C 11.5 °C 1008.4 hPa NNE 16.3 km/h 24.1 km/h 29% 0 mm 49.0 W/m2
18:06 31.4 °C 11.7 °C 1008.4 hPa North 13 km/h 19.3 km/h 30% 0 mm 39.0 W/m2
18:28 30.8 °C 11.2 °C 1007.7 hPa NNE 11.1 km/h 24.1 km/h 30% 0 mm 14.0 W/m2
18:43 30.5 °C 11.9 °C 1008.4 hPa North 16.3 km/h 29 km/h 32% 0 mm 7.0 W/m2
19:11 29.7 °C 12.2 °C 1008.7 hPa East 6.4 km/h 12.9 km/h 34% 0 mm 0.0 W/m2
19:33 29.3 °C 10.9 °C 1009 hPa ESE 13 km/h 20.9 km/h 32% 0 mm 0.0 W/m2
19:56 29.1 °C 11.2 °C 1009.4 hPa ESE 24.1 km/h 29 km/h 33% 0 mm 0.0 W/m2
20:08 28.8 °C 10.9 °C 1010 hPa East 16.3 km/h 22.5 km/h 33% 0 mm 0.0 W/m2
20:19 28.6 °C 12.1 °C 1011.4 hPa East 4.7 km/h 11.3 km/h 36% 0 mm 0.0 W/m2
20:28 26.5 °C 15.5 °C 1012.4 hPa SSW 24.1 km/h 35.4 km/h 51% 0 mm 0.0 W/m2
20:41 21.8 °C 16.7 °C 1012.8 hPa SSW 30.6 km/h 37 km/h 73% 0.51 mm 0.0 W/m2
20:55 20.5 °C 17.5 °C 1014.1 hPa SSW 11.1 km/h 19.3 km/h 83% 0.76 mm 0.0 W/m2
Canyon Roadhouse, Fishriver Canyon, Namibia
Compliments of Weather Underground - 2.25 mb